Location: Owatonna
(44.0840°N, 93.2260°W)
Time: 18:13:58
(UTC-05:00)

Tiangong - Pass Details

Date: 29 June 2022
Orbit: 379 x 386 km, 41.5° (Epoch: 10 August)

Event Time Altitude Azimuth Distance (km) Brightness Sun altitude
Rises 22:03:22 0° 263° (W) 2,240 2.3 -9.5°
Reaches altitude 10° 22:05:27 10° 259° (W) 1,388 1.1 -9.8°
Maximum altitude 22:08:31 52° 181° (S) 475 -2.0 -10.2°
Enters shadow 22:11:08 13° 106° (ESE) 1,214 -0.1 -10.5°
